FW6321 Weather Reports


Display with metric or nautical units.
time (UTC)temp
F
wind
direction
speed
MPH
gust
MPH
rain 1hr
in
rain 24hr
in
rain mn
in
humidity
%
barometer
mb
20260510082249 58 10 9.0 18.0 0.00 0.00 0.00 74 1016.6
20260510081750 58 3 10.0 18.0 0.00 0.00 0.00 76 1016.7
20260510081251 58 33 9.0 17.0 0.00 0.00 0.00 75 1016.6
20260510080819 58 359 7.0 12.0 0.00 0.00 0.00 76 1016.6
20260510075747 58 8 8.0 14.0 0.00 0.00 0.00 76 1016.7
20260510075244 58 31 8.0 16.0 0.00 0.00 0.00 77 1016.6
20260510074739 58 346 7.0 16.0 0.00 0.00 0.00 76 1016.6
20260510074321 57 345 8.0 16.0 0.00 0.00 0.00 78 1016.6
20260510073241 57 19 9.0 19.0 0.00 0.00 0.00 80 1016.7
20260510072742 56 0 9.0 19.0 0.00 0.00 0.00 80 1016.8
20260510072240 56 4 9.0 14.0 0.00 0.00 0.00 81 1016.8
20260510071739 56 330 9.0 16.0 0.00 0.00 0.00 82 1016.9
20260510071237 56 339 9.0 16.0 0.00 0.00 0.00 82 1016.8
20260510070811 55 4 7.0 15.0 0.00 0.00 0.00 83 1016.8
20260510065736 54 352 7.0 13.0 0.00 0.00 0.00 85 1016.7
20260510065234 54 330 7.0 12.0 0.00 0.00 0.00 86 1016.7
20260510064734 54 10 7.0 15.0 0.00 0.00 0.00 86 1016.7
20260510064311 53 330 7.0 15.0 0.00 0.00 0.00 86 1016.7
20260510063404 53 5 7.0 13.0 0.00 0.00 0.00 87 1016.8
20260510061731 52 330 6.0 13.0 0.00 0.00 0.00 89 1016.7
20260510061229 52 330 6.0 12.0 0.00 0.00 0.00 90 1016.8
20260510060732 51 312 5.0 12.0 0.00 0.00 0.00 90 1016.8
20260510060229 51 292 5.0 10.0 0.00 0.00 0.00 91 1016.8
20260510055804 51 2 5.0 10.0 0.00 0.00 0.00 91 1016.8
20260510055430 51 21 6.0 12.0 0.00 0.00 0.00 91 1016.7
20260510053230 50 330 5.0 9.0 0.00 0.00 0.00 92 1016.7
20260510052812 50 296 5.0 9.0 0.00 0.00 0.00 92 1016.7
20260510051730 49 335 5.0 9.0 0.00 0.00 0.00 93 1016.7
20260510051230 49 352 4.0 9.0 0.00 0.00 0.00 93 1016.7
20260510050730 49 330 4.0 9.0 0.00 0.00 0.00 93 1016.7
20260510050228 49 339 4.0 8.0 0.00 0.00 0.00 93 1016.7
20260510045727 49 321 5.0 8.0 0.00 0.00 0.00 93 1016.7
20260510045227 49 330 6.0 9.0 0.00 0.00 0.00 93 1016.7
20260510044813 49 339 6.0 9.0 0.00 0.00 0.00 93 1016.7
20260510043730 49 335 5.0 9.0 0.00 0.00 0.00 93 1016.7
20260510043227 49 314 5.0 9.0 0.00 0.00 0.00 93 1016.8
20260510042833 49 301 5.0 9.0 0.00 0.00 0.00 93 1016.7
20260510041728 49 330 5.0 10.0 0.00 0.00 0.00 93 1016.7
20260510041230 49 312 5.0 10.0 0.00 0.00 0.00 92 1016.7
20260510040729 49 325 6.0 10.0 0.00 0.00 0.00 92 1016.6
20260510040227 49 314 5.0 10.0 0.00 0.00 0.00 92 1016.6
20260510035727 49 1 5.0 10.0 0.00 0.00 0.00 92 1016.6
20260510035227 49 335 5.0 9.0 0.00 0.00 0.00 92 1016.6
20260510034730 49 330 5.0 9.0 0.00 0.00 0.00 92 1016.6
20260510034228 49 330 4.0 8.0 0.00 0.00 0.00 92 1016.6
20260510033728 49 330 4.0 9.0 0.00 0.00 0.00 91 1016.6
20260510033228 49 4 5.0 9.0 0.00 0.00 0.00 91 1016.5
20260510032727 49 310 6.0 10.0 0.00 0.00 0.00 91 1016.5
20260510032228 49 321 6.0 10.0 0.00 0.00 0.00 91 1016.6
20260510031729 49 311 6.0 9.0 0.00 0.00 0.00 91 1016.6
20260510031228 50 354 5.0 12.0 0.00 0.00 0.00 91 1016.6
20260510030729 50 335 5.0 12.0 0.00 0.00 0.00 91 1016.6
20260510030332 50 349 5.0 10.0 0.00 0.00 0.00 91 1016.6
20260510025228 50 352 6.0 11.0 0.00 0.00 0.00 91 1016.7
20260510024728 50 354 7.0 11.0 0.00 0.00 0.00 91 1016.7
20260510024230 50 316 6.0 11.0 0.00 0.00 0.00 91 1016.8
20260510023727 50 325 6.0 11.0 0.00 0.00 0.00 91 1016.7
20260510023227 50 318 6.0 11.0 0.00 0.00 0.00 91 1016.8
20260510022734 50 316 6.0 11.0 0.00 0.00 0.00 91 1016.8
20260510022313 50 330 6.0 10.0 0.00 0.00 0.00 90 1016.9
20260510021300 50 330 5.0 10.0 0.00 0.00 0.00 90 1016.9
20260510020304 50 14 5.0 9.0 0.00 0.00 0.00 90 1017.0
20260510015215 51 325 5.0 10.0 0.00 0.00 0.00 90 1017.0
20260510014720 51 330 6.0 10.0 0.00 0.00 0.00 91 1017.0
20260510014215 51 314 6.0 10.0 0.00 0.00 0.00 91 1017.1
20260510013718 51 325 5.0 10.0 0.00 0.00 0.00 91 1017.1
20260510013214 51 330 5.0 8.0 0.00 0.00 0.00 91 1017.0
20260510012716 51 311 5.0 9.0 0.00 0.00 0.00 91 1016.9
20260510012216 51 356 5.0 9.0 0.00 0.00 0.00 91 1016.9
20260510011717 51 310 5.0 8.0 0.00 0.00 0.00 90 1016.9
20260510011216 51 316 4.0 9.0 0.00 0.00 0.00 91 1016.9
20260510010711 51 330 4.0 9.0 0.00 0.00 0.00 90 1017.0
20260510010213 51 330 4.0 9.0 0.00 0.00 0.00 90 1017.0
20260510005756 51 356 5.0 8.0 0.00 0.00 0.00 90 1017.1
20260510004746 51 314 4.0 8.0 0.00 0.00 0.00 90 1017.2
20260510003712 51 342 4.0 8.0 0.00 0.00 0.00 90 1017.4
20260510003212 51 306 4.0 9.0 0.00 0.00 0.00 90 1017.3
20260510002716 52 11 4.0 9.0 0.00 0.00 0.00 90 1017.3
20260510002212 52 340 4.0 8.0 0.00 0.00 0.00 90 1017.4
20260510001713 52 325 3.0 5.0 0.00 0.00 0.00 90 1017.5
20260510001206 52 325 4.0 8.0 0.00 0.00 0.00 89 1017.6
20260510000706 52 335 4.0 9.0 0.00 0.00 0.00 89 1017.6
20260510000206 52 319 5.0 9.0 0.00 0.00 0.00 89 1017.5
20260509235746 52 287 5.0 9.0 0.00 0.00 0.00 89 1017.5
20260509234738 52 315 5.0 8.0 0.00 0.00 0.00 89 1017.6
20260509233706 52 320 4.0 8.0 0.00 0.00 0.00 88 1017.5
20260509233206 52 339 4.0 7.0 0.00 0.00 0.00 88 1017.5
20260509232705 53 300 4.0 7.0 0.00 0.00 0.00 88 1017.4
20260509232205 53 6 4.0 8.0 0.00 0.00 0.00 88 1017.5
20260509231704 53 335 4.0 8.0 0.00 0.00 0.00 88 1017.5
20260509231206 53 350 4.0 9.0 0.00 0.00 0.00 87 1017.6
20260509230707 53 312 5.0 10.0 0.00 0.00 0.00 87 1017.6
20260509230206 53 325 5.0 10.0 0.00 0.00 0.00 87 1017.5
20260509225706 53 325 5.0 10.0 0.00 0.00 0.00 86 1017.6
20260509225230 53 11 4.0 9.0 0.00 0.00 0.00 86 1017.6
20260509224205 53 0 4.0 8.0 0.00 0.00 0.00 85 1017.7
20260509223729 53 325 5.0 9.0 0.00 0.00 0.00 84 1017.7
20260509222702 54 356 4.0 9.0 0.00 0.00 0.00 83 1017.7
20260509222204 54 330 4.0 9.0 0.00 0.00 0.00 83 1017.6
20260509221704 54 352 5.0 9.0 0.00 0.00 0.00 83 1017.6
20260509221205 54 314 5.0 12.0 0.00 0.00 0.00 82 1017.6
20260509220705 54 325 5.0 12.0 0.00 0.00 0.00 82 1017.7
20260509220204 54 311 4.0 11.0 0.00 0.00 0.00 81 1017.6
20260509215702 54 325 5.0 10.0 0.00 0.00 0.00 81 1017.7
20260509215202 55 8 5.0 9.0 0.00 0.00 0.00 81 1017.6
20260509214702 55 349 5.0 9.0 0.00 0.00 0.00 81 1017.6
20260509214159 55 356 5.0 13.0 0.00 0.00 0.00 80 1017.7
20260509213658 55 26 5.0 13.0 0.00 0.00 0.00 80 1017.6
20260509213155 55 330 4.0 9.0 0.00 0.00 0.00 80 1017.6
20260509212651 55 349 4.0 9.0 0.00 0.00 0.00 79 1017.6
20260509212148 55 316 4.0 10.0 0.00 0.00 0.00 79 1017.7
20260509211649 55 325 5.0 11.0 0.00 0.00 0.00 78 1017.8
20260509211149 55 339 6.0 11.0 0.00 0.00 0.00 78 1017.7
20260509210650 55 343 5.0 10.0 0.00 0.00 0.00 77 1017.6
20260509210217 55 358 5.0 10.0 0.00 0.00 0.00 77 1017.7
20260509205150 56 346 5.0 9.0 0.00 0.00 0.00 76 1017.7
20260509204650 56 345 5.0 10.0 0.00 0.00 0.00 75 1017.6
20260509204147 56 348 5.0 11.0 0.00 0.00 0.00 75 1017.8
20260509203647 56 0 6.0 12.0 0.00 0.00 0.00 74 1017.6
20260509203149 56 309 6.0 12.0 0.00 0.00 0.00 74 1017.6
20260509202730 56 12 6.0 12.0 0.00 0.00 0.00 74 1017.5
20260509201718 56 8 5.0 10.0 0.00 0.00 0.00 73 1017.6
20260509200648 57 1 4.0 8.0 0.00 0.00 0.00 72 1017.6
20260509200147 57 335 4.0 9.0 0.00 0.00 0.00 72 1017.7
20260509195646 57 6 4.0 9.0 0.00 0.00 0.00 72 1017.7
20260509195146 57 345 5.0 9.0 0.00 0.00 0.00 72 1017.7
20260509194646 58 357 5.0 9.0 0.00 0.00 0.00 72 1017.6
20260509194145 58 343 5.0 11.0 0.00 0.00 0.00 71 1017.5
20260509193646 58 356 5.0 11.0 0.00 0.00 0.00 71 1017.5
20260509193146 58 354 4.0 8.0 0.00 0.00 0.00 71 1017.6
20260509192645 58 14 3.0 7.0 0.00 0.00 0.00 70 1017.5
20260509192145 59 11 4.0 9.0 0.00 0.00 0.00 70 1017.5
20260509191647 59 352 5.0 9.0 0.00 0.00 0.00 69 1017.5
20260509191145 59 18 5.0 9.0 0.00 0.00 0.00 69 1017.4
20260509190646 60 355 5.0 10.0 0.00 0.00 0.00 69 1017.5
20260509190145 60 345 6.0 11.0 0.00 0.00 0.00 68 1017.5
20260509185647 60 10 6.0 11.0 0.00 0.00 0.00 68 1017.4
20260509185147 60 15 5.0 10.0 0.00 0.00 0.00 68 1017.3
20260509184651 60 12 6.0 11.0 0.00 0.00 0.00 67 1017.3
20260509184151 60 23 5.0 11.0 0.00 0.00 0.00 66 1017.4
20260509183712 61 2 5.0 9.0 0.00 0.00 0.00 66 1017.2
20260509182647 61 343 4.0 10.0 0.00 0.00 0.00 65 1017.2
20260509182147 61 339 5.0 12.0 0.00 0.00 0.00 65 1017.2
20260509181647 62 330 6.0 13.0 0.00 0.00 0.00 64 1017.2
20260509181146 62 345 7.0 13.0 0.00 0.00 0.00 63 1017.1
20260509180646 62 356 7.0 14.0 0.00 0.00 0.00 63 1017.1
20260509180214 62 352 7.0 14.0 0.00 0.00 0.00 61 1017.2
20260509175145 62 350 8.0 13.0 0.00 0.00 0.00 61 1017.1
20260509174643 62 339 5.0 13.0 0.00 0.00 0.00 61 1017.1
20260509174212 63 31 5.0 10.0 0.00 0.00 0.00 62 1017.1
20260509173142 63 2 6.0 12.0 0.00 0.00 0.00 61 1017.3
20260509172644 63 325 6.0 14.0 0.00 0.00 0.00 60 1017.3
20260509172142 63 16 7.0 14.0 0.00 0.00 0.00 60 1017.3
20260509171641 63 11 8.0 15.0 0.00 0.00 0.00 59 1017.3
20260509171141 63 356 7.0 15.0 0.00 0.00 0.00 59 1017.2
20260509170642 64 320 5.0 13.0 0.00 0.00 0.00 60 1017.3
20260509170142 64 325 7.0 14.0 0.00 0.00 0.00 58 1017.2
20260509165640 64 7 7.0 14.0 0.00 0.00 0.00 56 1017.3
20260509165139 64 349 6.0 14.0 0.00 0.00 0.00 58 1017.3
20260509164640 64 349 6.0 12.0 0.00 0.00 0.00 57 1017.3
20260509164138 64 27 7.0 13.0 0.00 0.00 0.00 57 1017.2
20260509163637 64 320 6.0 13.0 0.00 0.00 0.00 57 1017.3
20260509163211 65 356 7.0 13.0 0.00 0.00 0.00 59 1017.3
20260509162137 64 21 8.0 13.0 0.00 0.00 0.00 57 1017.2
20260509161637 64 354 7.0 13.0 0.00 0.00 0.00 58 1017.2
20260509161140 64 318 7.0 11.0 0.00 0.00 0.00 56 1017.3
20260509160637 64 340 6.0 11.0 0.00 0.00 0.00 57 1017.2
20260509160138 64 358 5.0 10.0 0.00 0.00 0.00 58 1017.3
20260509155748 64 76 4.0 12.0 0.00 0.00 0.00 58 1017.2
20260509154136 65 62 2.0 7.0 0.00 0.00 0.00 55 1017.2
20260509153702 65 73 3.0 7.0 0.00 0.00 0.00 56 1017.2
20260509152718 65 33 5.0 11.0 0.00 0.00 0.00 57 1017.2
20260509151638 66 0 4.0 10.0 0.00 0.00 0.00 56 1017.3
20260509151140 66 8 4.0 10.0 0.00 0.00 0.00 57 1017.3
20260509150709 66 45 4.0 9.0 0.00 0.00 0.00 57 1017.5
20260509145640 66 5 3.0 10.0 0.00 0.00 0.00 55 1017.5
20260509145146 67 25 2.0 7.0 0.00 0.00 0.00 57 1017.4
20260509144640 66 48 3.0 7.0 0.00 0.00 0.00 54 1017.5
20260509144134 66 50 4.0 7.0 0.00 0.00 0.00 53 1017.5
20260509143711 66 57 5.0 13.0 0.00 0.00 0.00 58 1017.5
20260509142637 65 39 5.0 11.0 0.00 0.00 0.00 53 1017.5
20260509142146 66 48 5.0 11.0 0.00 0.00 0.00 59 1017.6
20260509141634 66 36 4.0 10.0 0.00 0.00 0.00 57 1017.6
20260509141134 65 2 4.0 10.0 0.00 0.00 0.00 60 1017.6
20260509140632 64 351 4.0 9.0 0.00 0.00 0.00 58 1017.8
20260509140134 65 354 5.0 9.0 0.00 0.00 0.00 56 1017.9
20260509135720 66 315 4.0 9.0 0.00 0.00 0.00 52 1017.8
20260509134635 65 27 6.0 11.0 0.00 0.00 0.00 56 1017.9
20260509134134 65 56 4.0 10.0 0.00 0.00 0.00 58 1017.9
20260509133634 65 339 5.0 12.0 0.00 0.00 0.00 58 1017.9
20260509133134 64 308 5.0 12.0 0.00 0.00 0.00 57 1018.0
20260509132709 64 339 5.0 12.0 0.00 0.00 0.00 60 1018.2
20260509131631 64 325 4.0 8.0 0.00 0.00 0.00 56 1018.3
20260509131131 64 13 3.0 8.0 0.00 0.00 0.00 58 1018.3
20260509130659 64 264 4.0 9.0 0.00 0.00 0.00 54 1018.3
20260509125630 66 330 3.0 6.0 0.00 0.00 0.00 56 1018.6
20260509125132 65 4 4.0 8.0 0.00 0.00 0.00 59 1018.6
20260509124631 65 23 4.0 9.0 0.00 0.00 0.00 57 1018.7
20260509124128 66 48 3.0 9.0 0.00 0.00 0.00 60 1018.7
20260509123627 66 82 3.0 8.0 0.00 0.00 0.00 57 1018.7
20260509123128 65 65 3.0 6.0 0.00 0.00 0.00 61 1018.8
20260509122622 65 63 4.0 7.0 0.00 0.00 0.00 60 1018.8
20260509122124 64 335 3.0 7.0 0.00 0.00 0.00 55 1018.8
20260509121624 64 3 3.0 7.0 0.00 0.00 0.00 61 1018.8
20260509121120 64 58 4.0 9.0 0.00 0.00 0.00 60 1018.9
20260509120730 65 354 5.0 10.0 0.00 0.00 0.00 62 1018.9
20260509115122 66 0 4.0 10.0 0.00 0.00 0.00 61 1019.1
20260509114622 65 74 3.0 9.0 0.00 0.00 0.00 59 1019.1
20260509114123 64 85 3.0 8.0 0.00 0.00 0.00 59 1019.2
20260509113619 63 66 4.0 8.0 0.00 0.00 0.00 61 1019.3
20260509113120 63 94 3.0 7.0 0.00 0.00 0.00 63 1019.3
20260509112622 63 35 4.0 9.0 0.00 0.00 0.00 66 1019.3
20260509112123 63 32 4.0 9.0 0.00 0.00 0.00 65 1019.4
20260509111618 64 67 4.0 8.0 0.00 0.00 0.00 64 1019.4
20260509111118 65 83 5.0 10.0 0.00 0.00 0.00 63 1019.4
20260509110619 65 320 4.0 10.0 0.00 0.00 0.00 62 1019.5
20260509110118 65 21 4.0 9.0 0.00 0.00 0.00 66 1019.4
20260509105619 64 295 5.0 9.0 0.00 0.00 0.00 63 1019.5
20260509105118 64 33 5.0 9.0 0.00 0.00 0.00 63 1019.5
20260509104617 64 75 6.0 9.0 0.00 0.00 0.00 67 1019.6
20260509104120 64 25 5.0 9.0 0.00 0.00 0.00 65 1019.6
20260509103649 64 29 5.0 9.0 0.00 0.00 0.00 65 1019.6
20260509102617 64 25 5.0 11.0 0.00 0.00 0.00 70 1019.7
20260509102117 64 28 5.0 11.0 0.00 0.00 0.00 68 1019.7
20260509101618 64 65 4.0 9.0 0.00 0.00 0.00 67 1019.7
20260509101118 63 72 3.0 10.0 0.00 0.00 0.00 69 1019.8
20260509100617 64 39 5.0 11.0 0.00 0.00 0.00 69 1019.8
20260509100115 64 29 4.0 11.0 0.00 0.00 0.00 68 1019.8
20260509095615 64 23 3.0 9.0 0.00 0.00 0.00 70 1019.7
20260509095116 63 102 3.0 6.0 0.00 0.00 0.00 69 1019.7
20260509094643 63 29 4.0 9.0 0.00 0.00 0.00 70 1019.7
20260509093618 62 79 4.0 8.0 0.00 0.00 0.00 69 1019.8
20260509093115 62 120 4.0 10.0 0.00 0.00 0.00 71 1019.9
20260509092613 62 58 4.0 10.0 0.00 0.00 0.00 69 1019.9
20260509092238 62 75 5.0 9.0 0.00 0.00 0.00 70 1019.9
20260509090610 62 86 3.0 9.0 0.00 0.00 0.00 70 1019.9
20260509090111 62 92 4.0 10.0 0.00 0.00 0.00 70 1019.9
20260509085610 62 88 5.0 10.0 0.00 0.00 0.00 72 1019.9
20260509085110 61 68 5.0 9.0 0.00 0.00 0.00 72 1019.9
20260509084611 61 88 5.0 10.0 0.00 0.00 0.00 72 1019.8
20260509084110 61 74 6.0 10.0 0.00 0.00 0.00 72 1019.9
20260509083614 61 65 6.0 9.0 0.00 0.00 0.00 72 1019.9
20260509083110 61 59 4.0 9.0 0.00 0.00 0.00 71 1019.9
20260509082610 61 77 3.0 9.0 0.00 0.00 0.00 72 1019.8